Time,TemperatureF,DewpointF,PressureIn,WindDirection,WindDirectionDegrees,WindSpeedMPH,WindSpeedGustMPH,Humidity,HourlyPrecipIn,Conditions,Clouds,dailyrainin,SoftwareType,DateUTC
2013-03-21 00:00:00,68.2,58.8,29.30,WNW,292,0.0,0.0,72,0.00,,,0.00,WUHU21623XXSP,2013-03-21 04:00:00,
2013-03-21 00:05:00,67.8,58.9,29.29,NW,315,0.0,0.0,73,0.00,,,0.00,WUHU21623XXSP,2013-03-21 04:05:00,
2013-03-21 00:10:00,67.8,58.9,29.29,NNW,337,0.0,0.0,73,0.00,,,0.00,WUHU21623XXSP,2013-03-21 04:10:00,
2013-03-21 00:15:00,67.6,58.7,29.29,NNW,337,0.0,0.0,73,0.00,,,0.00,WUHU21623XXSP,2013-03-21 04:15:00,
2013-03-21 00:20:00,67.3,58.7,29.29,NW,315,0.0,0.0,74,0.00,,,0.00,WUHU21623XXSP,2013-03-21 04:20:00,
2013-03-21 00:25:00,67.5,58.9,29.29,WNW,292,0.0,0.0,74,0.00,,,0.00,WUHU21623XXSP,2013-03-21 04:25:00,
2013-03-21 00:30:00,67.3,58.7,29.29,WNW,292,0.0,0.0,74,0.00,,,0.00,WUHU21623XXSP,2013-03-21 04:30:00,
2013-03-21 00:35:00,67.3,59.1,29.29,WNW,292,0.0,0.0,75,0.00,,,0.00,WUHU21623XXSP,2013-03-21 04:35:00,
2013-03-21 00:40:00,67.3,59.1,29.29,NW,315,0.0,0.0,75,0.00,,,0.00,WUHU21623XXSP,2013-03-21 04:40:00,
2013-03-21 00:45:00,67.3,59.1,29.29,WSW,247,0.0,0.0,75,0.00,,,0.00,WUHU21623XXSP,2013-03-21 04:45:00,
2013-03-21 00:50:00,67.1,58.9,29.30,West,270,0.0,0.0,75,0.00,,,0.00,WUHU21623XXSP,2013-03-21 04:50:00,
2013-03-21 00:55:00,67.1,58.9,29.30,West,270,0.0,0.0,75,0.00,,,0.00,WUHU21623XXSP,2013-03-21 04:55:00,
2013-03-21 01:00:00,66.7,58.5,29.30,NW,315,0.0,0.0,75,0.00,,,0.00,WUHU21623XXSP,2013-03-21 05:00:00,
2013-03-21 01:05:00,66.9,58.7,29.30,West,270,0.0,0.0,75,0.00,,,0.00,WUHU21623XXSP,2013-03-21 05:05:00,
2013-03-21 01:10:00,66.9,58.7,29.30,WSW,247,0.0,0.0,75,0.00,,,0.00,WUHU21623XXSP,2013-03-21 05:10:00,
2013-03-21 01:15:00,66.7,58.9,29.30,West,270,0.0,0.0,76,0.00,,,0.00,WUHU21623XXSP,2013-03-21 05:15:00,
2013-03-21 01:20:00,66.7,58.9,29.30,WNW,292,0.0,0.0,76,0.00,,,0.00,WUHU21623XXSP,2013-03-21 05:20:00,
2013-03-21 01:25:00,66.7,59.3,29.30,West,270,0.0,0.0,77,0.00,,,0.00,WUHU21623XXSP,2013-03-21 05:25:00,
2013-03-21 01:30:00,66.7,59.3,29.30,WNW,292,0.0,0.0,77,0.00,,,0.00,WUHU21623XXSP,2013-03-21 05:30:00,
2013-03-21 01:35:00,66.4,58.9,29.30,West,270,0.0,0.0,77,0.00,,,0.00,WUHU21623XXSP,2013-03-21 05:35:00,
2013-03-21 01:40:00,66.4,58.9,29.30,West,270,0.0,0.0,77,0.00,,,0.00,WUHU21623XXSP,2013-03-21 05:40:00,
2013-03-21 01:45:00,66.0,58.6,29.30,NW,315,0.0,0.0,77,0.00,,,0.00,WUHU21623XXSP,2013-03-21 05:45:00,
2013-03-21 01:50:00,65.8,58.8,29.30,WNW,292,0.0,0.0,78,0.00,,,0.00,WUHU21623XXSP,2013-03-21 05:50:00,
2013-03-21 01:55:00,65.7,59.0,29.29,NW,315,0.0,0.0,79,0.00,,,0.00,WUHU21623XXSP,2013-03-21 05:55:00,
2013-03-21 02:00:00,65.5,58.8,29.29,West,270,0.0,0.0,79,0.00,,,0.00,WUHU21623XXSP,2013-03-21 06:00:00,
2013-03-21 02:05:00,65.5,58.8,29.29,West,270,0.0,0.0,79,0.00,,,0.00,WUHU21623XXSP,2013-03-21 06:05:00,
2013-03-21 02:10:00,65.5,58.8,29.29,West,270,0.0,0.0,79,0.00,,,0.00,WUHU21623XXSP,2013-03-21 06:10:00,
2013-03-21 02:15:00,65.3,58.6,29.28,WNW,292,0.0,0.0,79,0.00,,,0.00,WUHU21623XXSP,2013-03-21 06:15:00,
2013-03-21 02:20:00,65.1,58.8,29.28,West,270,0.0,0.0,80,0.00,,,0.00,WUHU21623XXSP,2013-03-21 06:20:00,
2013-03-21 02:25:00,65.3,59.0,29.28,NW,315,0.0,0.0,80,0.00,,,0.00,WUHU21623XXSP,2013-03-21 06:25:00,
2013-03-21 02:30:00,65.3,59.0,29.28,WNW,292,0.0,0.0,80,0.00,,,0.00,WUHU21623XXSP,2013-03-21 06:30:00,
2013-03-21 02:35:00,65.3,59.0,29.28,WNW,292,0.0,0.0,80,0.00,,,0.00,WUHU21623XXSP,2013-03-21 06:35:00,
2013-03-21 02:40:00,65.1,58.8,29.28,West,270,0.0,0.0,80,0.00,,,0.00,WUHU21623XXSP,2013-03-21 06:40:00,
2013-03-21 02:45:00,65.1,58.8,29.28,West,270,0.0,0.0,80,0.00,,,0.00,WUHU21623XXSP,2013-03-21 06:45:00,
2013-03-21 02:50:00,65.1,58.8,29.28,WNW,292,0.0,0.0,80,0.00,,,0.00,WUHU21623XXSP,2013-03-21 06:50:00,
2013-03-21 02:55:00,64.9,59.0,29.28,WNW,292,0.0,0.0,81,0.00,,,0.00,WUHU21623XXSP,2013-03-21 06:55:00,
2013-03-21 03:00:00,64.9,59.0,29.28,West,270,0.0,0.0,81,0.00,,,0.00,WUHU21623XXSP,2013-03-21 07:00:00,
2013-03-21 03:05:00,64.9,59.0,29.28,West,270,0.0,0.0,81,0.00,,,0.00,WUHU21623XXSP,2013-03-21 07:05:00,
2013-03-21 03:10:00,64.9,59.0,29.28,WNW,292,0.0,0.0,81,0.00,,,0.00,WUHU21623XXSP,2013-03-21 07:10:00,
2013-03-21 03:15:00,64.8,58.8,29.28,West,270,0.0,0.0,81,0.00,,,0.00,WUHU21623XXSP,2013-03-21 07:15:00,
2013-03-21 03:20:00,64.8,58.8,29.28,West,270,0.0,0.0,81,0.00,,,0.00,WUHU21623XXSP,2013-03-21 07:20:00,
2013-03-21 03:25:00,64.6,58.9,29.28,West,270,0.0,0.0,82,0.00,,,0.00,WUHU21623XXSP,2013-03-21 07:25:00,
2013-03-21 03:30:00,64.8,59.1,29.28,WNW,292,0.0,0.0,82,0.00,,,0.00,WUHU21623XXSP,2013-03-21 07:30:00,
2013-03-21 03:35:00,64.8,59.1,29.29,West,270,0.0,0.0,82,0.00,,,0.00,WUHU21623XXSP,2013-03-21 07:35:00,
2013-03-21 03:40:00,64.8,59.1,29.28,WNW,292,0.0,0.0,82,0.00,,,0.00,WUHU21623XXSP,2013-03-21 07:40:00,
2013-03-21 03:45:00,64.6,59.3,29.28,North,0,0.0,0.0,83,0.00,,,0.00,WUHU21623XXSP,2013-03-21 07:45:00,
2013-03-21 03:50:00,64.2,58.9,29.28,NNW,337,0.0,0.0,83,0.00,,,0.00,WUHU21623XXSP,2013-03-21 07:50:00,
2013-03-21 03:55:00,64.2,58.9,29.28,WNW,292,0.0,0.0,83,0.00,,,0.00,WUHU21623XXSP,2013-03-21 07:55:00,
2013-03-21 04:00:00,64.2,58.9,29.28,NNW,337,0.0,0.0,83,0.00,,,0.00,WUHU21623XXSP,2013-03-21 08:00:00,
2013-03-21 04:05:00,64.2,58.9,29.28,NW,315,0.0,0.0,83,0.00,,,0.00,WUHU21623XXSP,2013-03-21 08:05:00,
2013-03-21 04:10:00,64.2,58.9,29.29,WNW,292,0.0,0.0,83,0.00,,,0.00,WUHU21623XXSP,2013-03-21 08:10:00,
2013-03-21 04:15:00,64.0,58.8,29.28,NNW,337,0.0,0.0,83,0.00,,,0.00,WUHU21623XXSP,2013-03-21 08:15:00,
2013-03-21 04:20:00,64.0,58.8,29.28,WNW,292,0.0,0.0,83,0.00,,,0.00,WUHU21623XXSP,2013-03-21 08:20:00,
2013-03-21 04:25:00,64.0,58.8,29.29,NNW,337,0.0,0.0,83,0.00,,,0.00,WUHU21623XXSP,2013-03-21 08:25:00,
2013-03-21 04:30:00,64.0,58.8,29.28,NW,315,0.0,0.0,83,0.00,,,0.00,WUHU21623XXSP,2013-03-21 08:30:00,
2013-03-21 04:35:00,64.0,58.8,29.28,NNW,337,0.0,0.0,83,0.00,,,0.00,WUHU21623XXSP,2013-03-21 08:35:00,
2013-03-21 04:40:00,64.0,58.8,29.29,NNW,337,0.0,0.0,83,0.00,,,0.00,WUHU21623XXSP,2013-03-21 08:40:00,
2013-03-21 04:45:00,64.0,58.8,29.29,NNW,337,0.0,0.0,83,0.00,,,0.00,WUHU21623XXSP,2013-03-21 08:45:00,
2013-03-21 04:50:00,64.0,58.8,29.29,NNW,337,0.0,0.0,83,0.00,,,0.00,WUHU21623XXSP,2013-03-21 08:50:00,
2013-03-21 04:55:00,64.0,58.4,29.28,WNW,292,0.0,0.0,82,0.00,,,0.00,WUHU21623XXSP,2013-03-21 08:55:00,
2013-03-21 05:00:00,64.0,58.4,29.28,North,0,0.0,0.0,82,0.00,,,0.00,WUHU21623XXSP,2013-03-21 09:00:00,
2013-03-21 05:05:00,64.0,58.4,29.28,NW,315,0.0,0.0,82,0.00,,,0.00,WUHU21623XXSP,2013-03-21 09:05:00,
2013-03-21 05:10:00,64.0,58.4,29.28,WNW,292,0.0,0.0,82,0.00,,,0.00,WUHU21623XXSP,2013-03-21 09:10:00,
2013-03-21 05:15:00,63.9,58.2,29.28,NW,315,0.0,0.0,82,0.00,,,0.00,WUHU21623XXSP,2013-03-21 09:15:00,
2013-03-21 05:20:00,64.0,58.4,29.28,NNW,337,0.0,0.0,82,0.00,,,0.00,WUHU21623XXSP,2013-03-21 09:20:00,
2013-03-21 05:25:00,64.0,58.4,29.28,North,0,0.0,0.0,82,0.00,,,0.00,WUHU21623XXSP,2013-03-21 09:25:00,
2013-03-21 05:30:00,64.0,58.4,29.28,West,270,0.0,0.0,82,0.00,,,0.00,WUHU21623XXSP,2013-03-21 09:30:00,
2013-03-21 05:35:00,64.0,58.4,29.28,WNW,292,0.0,0.0,82,0.00,,,0.00,WUHU21623XXSP,2013-03-21 09:35:00,
2013-03-21 05:40:00,63.9,58.2,29.29,WNW,292,0.0,0.0,82,0.00,,,0.00,WUHU21623XXSP,2013-03-21 09:40:00,
2013-03-21 05:45:00,63.9,58.2,29.28,NW,315,0.0,0.0,82,0.00,,,0.00,WUHU21623XXSP,2013-03-21 09:45:00,
2013-03-21 05:50:00,63.7,58.1,29.28,NNW,337,0.0,0.0,82,0.00,,,0.00,WUHU21623XXSP,2013-03-21 09:50:00,
2013-03-21 05:55:00,63.7,58.1,29.29,NNW,337,0.0,0.0,82,0.00,,,0.00,WUHU21623XXSP,2013-03-21 09:55:00,
2013-03-21 06:00:00,63.7,58.4,29.29,NNW,337,0.0,0.0,83,0.00,,,0.00,WUHU21623XXSP,2013-03-21 10:00:00,
2013-03-21 06:05:00,63.7,58.4,29.29,NNW,337,0.0,0.0,83,0.00,,,0.00,WUHU21623XXSP,2013-03-21 10:05:00,
2013-03-21 06:10:00,63.7,58.4,29.29,NW,315,0.0,0.0,83,0.00,,,0.00,WUHU21623XXSP,2013-03-21 10:10:00,
2013-03-21 06:15:00,63.7,58.4,29.30,NNW,337,0.0,0.0,83,0.00,,,0.00,WUHU21623XXSP,2013-03-21 10:15:00,
2013-03-21 06:20:00,63.5,58.2,29.30,NNW,337,0.0,0.0,83,0.00,,,0.00,WUHU21623XXSP,2013-03-21 10:20:00,
2013-03-21 06:25:00,63.5,57.9,29.30,NNW,337,0.0,0.0,82,0.00,,,0.00,WUHU21623XXSP,2013-03-21 10:25:00,
2013-03-21 06:30:00,63.5,57.9,29.30,NW,315,0.0,0.0,82,0.00,,,0.00,WUHU21623XXSP,2013-03-21 10:30:00,
2013-03-21 06:35:00,63.3,57.7,29.30,NNW,337,0.0,0.0,82,0.00,,,0.00,WUHU21623XXSP,2013-03-21 10:35:00,
2013-03-21 06:40:00,63.1,57.5,29.30,NNW,337,0.0,0.0,82,0.00,,,0.00,WUHU21623XXSP,2013-03-21 10:40:00,
2013-03-21 06:45:00,63.1,57.5,29.31,NNW,337,0.0,0.0,82,0.00,,,0.00,WUHU21623XXSP,2013-03-21 10:45:00,
2013-03-21 06:50:00,63.3,57.7,29.31,NNW,337,0.0,0.0,82,0.00,,,0.00,WUHU21623XXSP,2013-03-21 10:50:00,
2013-03-21 06:55:00,63.3,57.7,29.31,NNW,337,0.0,0.0,82,0.00,,,0.00,WUHU21623XXSP,2013-03-21 10:55:00,
2013-03-21 07:00:00,63.5,57.9,29.32,North,0,0.0,0.0,82,0.00,,,0.00,WUHU21623XXSP,2013-03-21 11:00:00,
2013-03-21 07:05:00,63.5,57.9,29.32,NNW,337,0.0,0.0,82,0.00,,,0.00,WUHU21623XXSP,2013-03-21 11:05:00,
2013-03-21 07:10:00,63.3,57.7,29.32,NNW,337,0.0,0.0,82,0.00,,,0.00,WUHU21623XXSP,2013-03-21 11:10:00,
2013-03-21 07:15:00,63.3,57.7,29.33,WNW,292,0.0,0.0,82,0.00,,,0.00,WUHU21623XXSP,2013-03-21 11:15:00,
2013-03-21 07:20:00,63.3,57.7,29.33,WNW,292,0.0,0.0,82,0.00,,,0.00,WUHU21623XXSP,2013-03-21 11:20:00,
2013-03-21 07:25:00,63.1,57.5,29.33,NNW,337,0.0,0.0,82,0.00,,,0.00,WUHU21623XXSP,2013-03-21 11:25:00,
2013-03-21 07:30:00,63.1,57.5,29.34,North,0,0.0,0.0,82,0.00,,,0.00,WUHU21623XXSP,2013-03-21 11:30:00,
2013-03-21 07:35:00,63.1,57.5,29.34,NNW,337,0.0,0.0,82,0.00,,,0.00,WUHU21623XXSP,2013-03-21 11:35:00,
2013-03-21 07:40:00,63.1,57.5,29.34,NNW,337,0.0,0.0,82,0.00,,,0.00,WUHU21623XXSP,2013-03-21 11:40:00,
2013-03-21 07:45:00,63.1,57.2,29.34,NNW,337,0.0,0.0,81,0.00,,,0.00,WUHU21623XXSP,2013-03-21 11:45:00,
2013-03-21 07:50:00,63.1,57.2,29.35,NNW,337,0.0,0.0,81,0.00,,,0.00,WUHU21623XXSP,2013-03-21 11:50:00,
2013-03-21 07:55:00,63.0,57.0,29.34,NNW,337,0.0,0.0,81,0.00,,,0.00,WUHU21623XXSP,2013-03-21 11:55:00,
2013-03-21 08:00:00,63.1,56.8,29.35,NNW,337,0.0,0.0,80,0.00,,,0.00,WUHU21623XXSP,2013-03-21 12:00:00,
2013-03-21 08:05:00,63.1,56.8,29.35,North,0,0.0,0.0,80,0.00,,,0.00,WUHU21623XXSP,2013-03-21 12:05:00,
2013-03-21 08:10:00,63.3,57.0,29.35,North,0,0.0,0.0,80,0.00,,,0.00,WUHU21623XXSP,2013-03-21 12:10:00,
2013-03-21 08:15:00,63.5,56.8,29.35,NNW,337,0.0,0.0,79,0.00,,,0.00,WUHU21623XXSP,2013-03-21 12:15:00,
2013-03-21 08:20:00,63.7,56.7,29.35,NNW,337,0.0,0.0,78,0.00,,,0.00,WUHU21623XXSP,2013-03-21 12:20:00,
2013-03-21 08:25:00,64.0,56.7,29.35,NNW,337,0.0,0.0,77,0.00,,,0.00,WUHU21623XXSP,2013-03-21 12:25:00,
2013-03-21 08:30:00,64.0,56.3,29.35,NNW,337,0.0,0.0,76,0.00,,,0.00,WUHU21623XXSP,2013-03-21 12:30:00,
2013-03-21 08:35:00,64.2,56.5,29.35,North,0,0.0,0.0,76,0.00,,,0.00,WUHU21623XXSP,2013-03-21 12:35:00,
2013-03-21 08:40:00,64.4,55.6,29.35,North,0,0.0,0.0,73,0.00,,,0.00,WUHU21623XXSP,2013-03-21 12:40:00,
2013-03-21 08:45:00,64.6,55.7,29.36,North,0,0.0,0.0,73,0.00,,,0.00,WUHU21623XXSP,2013-03-21 12:45:00,
2013-03-21 08:50:00,65.1,55.5,29.36,North,0,0.0,0.0,71,0.00,,,0.00,WUHU21623XXSP,2013-03-21 12:50:00,
2013-03-21 08:55:00,65.5,55.8,29.36,NNW,337,0.0,0.0,71,0.00,,,0.00,WUHU21623XXSP,2013-03-21 12:55:00,
2013-03-21 09:00:00,66.0,55.5,29.36,NNE,22,0.0,0.0,69,0.00,,,0.00,WUHU21623XXSP,2013-03-21 13:00:00,
2013-03-21 09:05:00,66.4,55.9,29.36,North,0,0.0,0.0,69,0.00,,,0.00,WUHU21623XXSP,2013-03-21 13:05:00,
2013-03-21 09:10:00,66.0,54.7,29.37,NNW,337,0.0,0.0,67,0.00,,,0.00,WUHU21623XXSP,2013-03-21 13:10:00,
2013-03-21 09:15:00,66.4,55.0,29.37,NNW,337,0.0,0.0,67,0.00,,,0.00,WUHU21623XXSP,2013-03-21 13:15:00,
2013-03-21 09:20:00,66.6,54.4,29.37,NNW,337,0.0,0.0,65,0.00,,,0.00,WUHU21623XXSP,2013-03-21 13:20:00,
2013-03-21 09:25:00,66.7,53.3,29.38,NW,315,0.0,0.0,62,0.00,,,0.00,WUHU21623XXSP,2013-03-21 13:25:00,
2013-03-21 09:30:00,66.6,53.5,29.38,NNW,337,0.0,0.0,63,0.00,,,0.00,WUHU21623XXSP,2013-03-21 13:30:00,
2013-03-21 09:35:00,67.8,54.7,29.38,West,270,0.0,0.0,63,0.00,,,0.00,WUHU21623XXSP,2013-03-21 13:35:00,
2013-03-21 09:40:00,67.8,53.9,29.38,NNW,337,0.0,0.0,61,0.00,,,0.00,WUHU21623XXSP,2013-03-21 13:40:00,
2013-03-21 09:45:00,67.8,53.4,29.39,NNW,337,0.0,0.0,60,0.00,,,0.00,WUHU21623XXSP,2013-03-21 13:45:00,
2013-03-21 09:50:00,68.5,52.2,29.39,North,0,0.0,0.0,56,0.00,,,0.00,WUHU21623XXSP,2013-03-21 13:50:00,
2013-03-21 09:55:00,68.5,52.7,29.39,NW,315,0.0,0.0,57,0.00,,,0.00,WUHU21623XXSP,2013-03-21 13:55:00,
2013-03-21 10:00:00,68.5,53.2,29.39,NNW,337,0.0,0.0,58,0.00,,,0.00,WUHU21623XXSP,2013-03-21 14:00:00,
2013-03-21 10:05:00,69.1,52.7,29.39,North,0,0.0,0.0,56,0.00,,,0.00,WUHU21623XXSP,2013-03-21 14:05:00,
2013-03-21 10:10:00,68.9,51.5,29.39,North,0,0.0,0.0,54,0.00,,,0.00,WUHU21623XXSP,2013-03-21 14:10:00,
2013-03-21 10:15:00,68.7,51.4,29.39,NNW,337,0.0,0.0,54,0.00,,,0.00,WUHU21623XXSP,2013-03-21 14:15:00,
2013-03-21 10:20:00,68.9,50.5,29.39,NW,315,0.0,0.0,52,0.00,,,0.00,WUHU21623XXSP,2013-03-21 14:20:00,
2013-03-21 10:25:00,69.1,49.7,29.39,NE,45,0.0,0.0,50,0.00,,,0.00,WUHU21623XXSP,2013-03-21 14:25:00,
2013-03-21 10:30:00,69.6,51.7,29.39,NNW,337,0.0,0.0,53,0.00,,,0.00,WUHU21623XXSP,2013-03-21 14:30:00,
2013-03-21 10:35:00,70.0,50.5,29.39,North,0,0.0,0.0,50,0.00,,,0.00,WUHU21623XXSP,2013-03-21 14:35:00,
2013-03-21 10:40:00,70.2,48.9,29.39,NNE,22,0.0,0.0,47,0.00,,,0.00,WUHU21623XXSP,2013-03-21 14:40:00,
2013-03-21 10:45:00,70.7,48.8,29.38,NNE,22,0.0,0.0,46,0.00,,,0.00,WUHU21623XXSP,2013-03-21 14:45:00,
2013-03-21 10:50:00,70.3,47.9,29.38,NNW,337,0.0,0.0,45,0.00,,,0.00,WUHU21623XXSP,2013-03-21 14:50:00,
2013-03-21 10:55:00,69.6,47.2,29.38,NW,315,0.0,0.0,45,0.00,,,0.00,WUHU21623XXSP,2013-03-21 14:55:00,
2013-03-21 11:00:00,70.3,48.5,29.38,North,0,0.0,0.0,46,0.00,,,0.00,WUHU21623XXSP,2013-03-21 15:00:00,
2013-03-21 11:05:00,70.5,47.4,29.38,NNE,22,0.0,0.0,44,0.00,,,0.00,WUHU21623XXSP,2013-03-21 15:05:00,
2013-03-21 11:10:00,71.2,47.5,29.38,NNE,22,0.0,0.0,43,0.00,,,0.00,WUHU21623XXSP,2013-03-21 15:10:00,
2013-03-21 11:15:00,71.4,48.3,29.38,NNE,22,0.0,0.0,44,0.00,,,0.00,WUHU21623XXSP,2013-03-21 15:15:00,
2013-03-21 11:20:00,71.8,48.0,29.38,NNW,337,0.0,0.0,43,0.00,,,0.00,WUHU21623XXSP,2013-03-21 15:20:00,
2013-03-21 11:25:00,72.0,47.0,29.38,NW,315,0.0,0.0,41,0.00,,,0.00,WUHU21623XXSP,2013-03-21 15:25:00,
2013-03-21 11:30:00,72.3,46.7,29.38,NNW,337,0.0,0.0,40,0.00,,,0.00,WUHU21623XXSP,2013-03-21 15:30:00,
2013-03-21 11:35:00,72.3,47.3,29.37,NNW,337,0.0,0.0,41,0.00,,,0.00,WUHU21623XXSP,2013-03-21 15:35:00,
2013-03-21 11:40:00,72.7,46.3,29.38,ENE,67,0.0,0.0,39,0.00,,,0.00,WUHU21623XXSP,2013-03-21 15:40:00,
2013-03-21 11:45:00,72.9,46.4,29.38,North,0,0.0,0.0,39,0.00,,,0.00,WUHU21623XXSP,2013-03-21 15:45:00,
2013-03-21 11:50:00,73.6,47.8,29.38,NNE,22,0.0,0.0,40,0.00,,,0.00,WUHU21623XXSP,2013-03-21 15:50:00,
2013-03-21 11:55:00,74.1,47.1,29.38,NNW,337,0.0,0.0,40,0.00,,,0.00,WUHU21623XXSP,2013-03-21 15:55:00,
2013-03-21 12:00:00,74.1,46.0,29.38,NNE,22,0.0,0.0,37,0.00,,,0.00,WUHU21623XXSP,2013-03-21 16:00:00,
2013-03-21 12:05:00,74.1,46.4,29.37,NNE,22,0.0,0.0,37,0.00,,,0.00,WUHU21623XXSP,2013-03-21 16:05:00,
2013-03-21 12:10:00,75.0,47.6,29.37,NNW,337,0.0,0.0,38,0.00,,,0.00,WUHU21623XXSP,2013-03-21 16:10:00,
2013-03-21 12:15:00,75.6,47.3,29.37,NNW,337,0.0,0.0,37,0.00,,,0.00,WUHU21623XXSP,2013-03-21 16:15:00,
2013-03-21 12:20:00,75.4,47.2,29.37,NE,45,0.0,0.0,37,0.00,,,0.00,WUHU21623XXSP,2013-03-21 16:20:00,
2013-03-21 12:25:00,75.0,46.9,29.37,WNW,292,0.0,0.0,37,0.00,,,0.00,WUHU21623XXSP,2013-03-21 16:25:00,
2013-03-21 12:30:00,75.4,46.4,29.37,NNW,337,0.0,0.0,36,0.00,,,0.00,WUHU21623XXSP,2013-03-21 16:30:00,
2013-03-21 12:35:00,75.9,47.7,29.37,NE,45,0.0,0.0,37,0.00,,,0.00,WUHU21623XXSP,2013-03-21 16:35:00,
2013-03-21 12:40:00,76.6,47.6,29.37,NW,315,0.0,0.0,36,0.00,,,0.00,WUHU21623XXSP,2013-03-21 16:40:00,
2013-03-21 12:45:00,76.3,46.5,29.37,NE,45,0.0,0.0,35,0.00,,,0.00,WUHU21623XXSP,2013-03-21 16:45:00,
2013-03-21 12:50:00,76.8,47.7,29.36,NNW,337,0.0,0.0,36,0.00,,,0.00,WUHU21623XXSP,2013-03-21 16:50:00,
2013-03-21 12:55:00,77.2,47.3,29.36,NNE,22,0.0,0.0,35,0.00,,,0.00,WUHU21623XXSP,2013-03-21 16:55:00,
2013-03-21 13:00:00,77.5,48.3,29.36,NW,315,0.0,0.0,36,0.00,,,0.00,WUHU21623XXSP,2013-03-21 17:00:00,
2013-03-21 13:05:00,77.7,47.7,29.36,NNW,337,0.0,0.0,35,0.00,,,0.00,WUHU21623XXSP,2013-03-21 17:05:00,
2013-03-21 13:10:00,77.5,47.6,29.36,ENE,67,0.0,0.0,35,0.00,,,0.00,WUHU21623XXSP,2013-03-21 17:10:00,
2013-03-21 13:15:00,78.4,48.3,29.36,North,0,0.0,0.0,35,0.00,,,0.00,WUHU21623XXSP,2013-03-21 17:15:00,
2013-03-21 13:20:00,78.4,49.1,29.35,NW,315,0.0,0.0,36,0.00,,,0.00,WUHU21623XXSP,2013-03-21 17:20:00,
2013-03-21 13:25:00,79.0,50.4,29.35,North,0,0.0,0.0,37,0.00,,,0.00,WUHU21623XXSP,2013-03-21 17:25:00,
2013-03-21 13:30:00,78.8,49.4,29.35,NNE,22,0.0,0.0,36,0.00,,,0.00,WUHU21623XXSP,2013-03-21 17:30:00,
2013-03-21 13:35:00,79.0,49.6,29.35,NE,45,0.0,0.0,36,0.00,,,0.00,WUHU21623XXSP,2013-03-21 17:35:00,
2013-03-21 13:40:00,79.2,49.7,29.35,West,270,0.0,0.0,36,0.00,,,0.00,WUHU21623XXSP,2013-03-21 17:40:00,
2013-03-21 13:45:00,79.9,49.6,29.35,NNW,337,0.0,0.0,35,0.00,,,0.00,WUHU21623XXSP,2013-03-21 17:45:00,
2013-03-21 13:50:00,78.8,48.7,29.35,NNE,22,0.0,0.0,35,0.00,,,0.00,WUHU21623XXSP,2013-03-21 17:50:00,
2013-03-21 13:55:00,79.0,49.6,29.35,NW,315,0.0,0.0,36,0.00,,,0.00,WUHU21623XXSP,2013-03-21 17:55:00,
2013-03-21 14:00:00,79.5,49.3,29.34,North,0,0.0,0.0,35,0.00,,,0.00,WUHU21623XXSP,2013-03-21 18:00:00,
2013-03-21 14:05:00,79.5,50.1,29.34,NNW,337,0.0,0.0,36,0.00,,,0.00,WUHU21623XXSP,2013-03-21 18:05:00,
2013-03-21 14:10:00,78.6,49.3,29.34,NNE,22,0.0,0.0,36,0.00,,,0.00,WUHU21623XXSP,2013-03-21 18:10:00,
2013-03-21 14:15:00,78.4,49.1,29.34,North,0,0.0,0.0,36,0.00,,,0.00,WUHU21623XXSP,2013-03-21 18:15:00,
2013-03-21 14:20:00,79.9,50.4,29.34,NE,45,0.0,0.0,36,0.00,,,0.00,WUHU21623XXSP,2013-03-21 18:20:00,
2013-03-21 14:25:00,79.5,50.1,29.34,NW,315,0.0,0.0,36,0.00,,,0.00,WUHU21623XXSP,2013-03-21 18:25:00,
2013-03-21 14:30:00,80.1,50.6,29.34,NNE,22,0.0,0.0,36,0.00,,,0.00,WUHU21623XXSP,2013-03-21 18:30:00,
2013-03-21 14:35:00,79.3,49.9,29.33,NNW,337,0.0,0.0,36,0.00,,,0.00,WUHU21623XXSP,2013-03-21 18:35:00,
2013-03-21 14:40:00,80.6,51.0,29.33,West,270,0.0,0.0,36,0.00,,,0.00,WUHU21623XXSP,2013-03-21 18:40:00,
2013-03-21 14:45:00,80.8,50.4,29.33,NW,315,0.0,0.0,35,0.00,,,0.00,WUHU21623XXSP,2013-03-21 18:45:00,
2013-03-21 14:50:00,79.7,50.2,29.33,North,0,0.0,0.0,36,0.00,,,0.00,WUHU21623XXSP,2013-03-21 18:50:00,
2013-03-21 14:55:00,79.7,48.7,29.33,WNW,292,0.0,0.0,34,0.00,,,0.00,WUHU21623XXSP,2013-03-21 18:55:00,
2013-03-21 15:00:00,80.1,49.8,29.33,WNW,292,0.0,0.0,35,0.00,,,0.00,WUHU21623XXSP,2013-03-21 19:00:00,
2013-03-21 15:05:00,80.4,50.1,29.33,NNW,337,0.0,0.0,35,0.00,,,0.00,WUHU21623XXSP,2013-03-21 19:05:00,
2013-03-21 15:10:00,80.4,50.1,29.33,North,0,0.0,0.0,35,0.00,,,0.00,WUHU21623XXSP,2013-03-21 19:10:00,
2013-03-21 15:15:00,79.9,48.8,29.33,North,0,0.0,0.0,34,0.00,,,0.00,WUHU21623XXSP,2013-03-21 19:15:00,
2013-03-21 15:20:00,79.0,48.8,29.32,NE,45,0.0,0.0,35,0.00,,,0.00,WUHU21623XXSP,2013-03-21 19:20:00,
2013-03-21 15:25:00,79.2,49.0,29.32,NE,45,0.0,0.0,35,0.00,,,0.00,WUHU21623XXSP,2013-03-21 19:25:00,
2013-03-21 15:30:00,79.5,49.3,29.32,NW,315,0.0,0.0,35,0.00,,,0.00,WUHU21623XXSP,2013-03-21 19:30:00,
2013-03-21 15:35:00,80.1,49.8,29.32,North,0,0.0,0.0,35,0.00,,,0.00,WUHU21623XXSP,2013-03-21 19:35:00,
2013-03-21 15:40:00,80.8,49.6,29.32,North,0,0.0,0.0,34,0.00,,,0.00,WUHU21623XXSP,2013-03-21 19:40:00,
2013-03-21 15:45:00,81.0,50.6,29.32,West,270,0.0,0.0,35,0.00,,,0.00,WUHU21623XXSP,2013-03-21 19:45:00,
2013-03-21 15:50:00,80.8,50.4,29.32,NE,45,0.0,0.0,35,0.00,,,0.00,WUHU21623XXSP,2013-03-21 19:50:00,
2013-03-21 15:55:00,80.6,49.5,29.32,WNW,292,0.0,0.0,34,0.00,,,0.00,WUHU21623XXSP,2013-03-21 19:55:00,
2013-03-21 16:00:00,80.2,49.9,29.32,NNE,22,0.0,0.0,35,0.00,,,0.00,WUHU21623XXSP,2013-03-21 20:00:00,
2013-03-21 16:05:00,81.0,50.6,29.32,NNW,337,0.0,0.0,35,0.00,,,0.00,WUHU21623XXSP,2013-03-21 20:05:00,
2013-03-21 16:10:00,80.8,49.6,29.32,North,0,0.0,0.0,34,0.00,,,0.00,WUHU21623XXSP,2013-03-21 20:10:00,
2013-03-21 16:15:00,79.2,49.0,29.32,North,0,0.0,0.0,35,0.00,,,0.00,WUHU21623XXSP,2013-03-21 20:15:00,
2013-03-21 16:20:00,79.5,50.1,29.32,North,0,0.0,0.0,36,0.00,,,0.00,WUHU21623XXSP,2013-03-21 20:20:00,
2013-03-21 16:25:00,79.5,50.1,29.32,North,0,0.0,0.0,36,0.00,,,0.00,WUHU21623XXSP,2013-03-21 20:25:00,
2013-03-21 16:30:00,78.6,49.3,29.32,North,0,0.0,0.0,36,0.00,,,0.00,WUHU21623XXSP,2013-03-21 20:30:00,
2013-03-21 16:35:00,79.5,50.1,29.32,NW,315,0.0,0.0,36,0.00,,,0.00,WUHU21623XXSP,2013-03-21 20:35:00,
2013-03-21 16:40:00,79.5,50.1,29.32,NNE,22,0.0,0.0,36,0.00,,,0.00,WUHU21623XXSP,2013-03-21 20:40:00,
2013-03-21 16:45:00,79.3,49.9,29.32,NNW,337,0.0,0.0,36,0.00,,,0.00,WUHU21623XXSP,2013-03-21 20:45:00,
2013-03-21 16:50:00,79.5,49.3,29.33,North,0,0.0,0.0,35,0.00,,,0.00,WUHU21623XXSP,2013-03-21 20:50:00,
2013-03-21 16:55:00,79.5,49.3,29.32,WNW,292,0.0,0.0,35,0.00,,,0.00,WUHU21623XXSP,2013-03-21 20:55:00,
2013-03-21 17:00:00,79.7,49.5,29.33,West,270,0.0,0.0,35,0.00,,,0.00,WUHU21623XXSP,2013-03-21 21:00:00,
2013-03-21 17:05:00,79.7,48.7,29.32,NNW,337,0.0,0.0,34,0.00,,,0.00,WUHU21623XXSP,2013-03-21 21:05:00,
2013-03-21 17:10:00,79.0,48.0,29.33,NNW,337,0.0,0.0,34,0.00,,,0.00,WUHU21623XXSP,2013-03-21 21:10:00,
2013-03-21 17:15:00,79.7,48.7,29.33,West,270,0.0,0.0,34,0.00,,,0.00,WUHU21623XXSP,2013-03-21 21:15:00,
2013-03-21 17:20:00,79.3,46.8,29.33,NNE,22,0.0,0.0,32,0.00,,,0.00,WUHU21623XXSP,2013-03-21 21:20:00,
2013-03-21 17:25:00,78.6,46.2,29.33,West,270,0.0,0.0,32,0.00,,,0.00,WUHU21623XXSP,2013-03-21 21:25:00,
2013-03-21 17:30:00,78.6,46.2,29.33,West,270,0.0,0.0,32,0.00,,,0.00,WUHU21623XXSP,2013-03-21 21:30:00,
2013-03-21 17:35:00,79.5,45.4,29.33,NW,315,0.0,0.0,30,0.00,,,0.00,WUHU21623XXSP,2013-03-21 21:35:00,
2013-03-21 17:40:00,79.3,44.2,29.33,NNW,337,0.0,0.0,29,0.00,,,0.00,WUHU21623XXSP,2013-03-21 21:40:00,
2013-03-21 17:45:00,78.6,43.6,29.33,West,270,0.0,0.0,29,0.00,,,0.00,WUHU21623XXSP,2013-03-21 21:45:00,
2013-03-21 17:50:00,78.1,42.1,29.34,NNW,337,0.0,0.0,28,0.00,,,0.00,WUHU21623XXSP,2013-03-21 21:50:00,
2013-03-21 17:55:00,77.7,42.9,29.34,West,270,0.0,0.0,29,0.00,,,0.00,WUHU21623XXSP,2013-03-21 21:55:00,
2013-03-21 18:00:00,78.1,43.2,29.34,NW,315,0.0,0.0,29,0.00,,,0.00,WUHU21623XXSP,2013-03-21 22:00:00,
2013-03-21 18:07:00,77.9,44.1,29.34,NW,315,0.0,0.0,30,0.00,,,0.00,WUHU21623XXSP,2013-03-21 22:07:00,
2013-03-21 18:12:00,77.9,43.0,29.34,West,270,0.0,0.0,29,0.00,,,0.00,WUHU21623XXSP,2013-03-21 22:12:00,
2013-03-21 18:17:00,77.5,42.7,29.34,WNW,292,0.0,0.0,29,0.00,,,0.00,WUHU21623XXSP,2013-03-21 22:17:00,
2013-03-21 18:22:00,76.8,43.2,29.34,WNW,292,0.0,0.0,30,0.00,,,0.00,WUHU21623XXSP,2013-03-21 22:22:00,
2013-03-21 18:27:00,76.3,42.7,29.34,West,270,0.0,0.0,30,0.00,,,0.00,WUHU21623XXSP,2013-03-21 22:27:00,
2013-03-21 18:32:00,75.7,43.0,29.35,West,270,0.0,0.0,31,0.00,,,0.00,WUHU21623XXSP,2013-03-21 22:32:00,
2013-03-21 18:37:00,75.0,46.9,29.35,North,0,0.0,0.0,37,0.00,,,0.00,WUHU21623XXSP,2013-03-21 22:37:00,
2013-03-21 18:42:00,74.3,48.5,29.35,North,0,0.0,0.0,40,0.00,,,0.00,WUHU21623XXSP,2013-03-21 22:42:00,
2013-03-21 18:47:00,73.6,48.4,29.35,North,0,0.0,0.0,41,0.00,,,0.00,WUHU21623XXSP,2013-03-21 22:47:00,
2013-03-21 18:52:00,73.4,50.0,29.35,ENE,67,0.0,0.0,44,0.00,,,0.00,WUHU21623XXSP,2013-03-21 22:52:00,
2013-03-21 18:57:00,75.0,49.7,29.35,ENE,67,0.0,0.0,41,0.00,,,0.00,WUHU21623XXSP,2013-03-21 22:57:00,
2013-03-21 19:02:00,73.6,49.0,29.35,NE,45,0.0,0.0,42,0.00,,,0.00,WUHU21623XXSP,2013-03-21 23:02:00,
2013-03-21 19:07:00,72.7,49.4,29.35,ENE,67,0.0,0.0,44,0.00,,,0.00,WUHU21623XXSP,2013-03-21 23:07:00,
2013-03-21 19:12:00,72.1,48.9,29.35,NE,45,0.0,0.0,44,0.00,,,0.00,WUHU21623XXSP,2013-03-21 23:12:00,
2013-03-21 19:17:00,71.4,48.8,29.35,NE,45,0.0,0.0,45,0.00,,,0.00,WUHU21623XXSP,2013-03-21 23:17:00,
2013-03-21 19:22:00,70.9,48.4,29.35,NE,45,0.0,0.0,45,0.00,,,0.00,WUHU21623XXSP,2013-03-21 23:22:00,
2013-03-21 19:27:00,70.9,49.0,29.35,NE,45,0.0,0.0,46,0.00,,,0.00,WUHU21623XXSP,2013-03-21 23:27:00,
2013-03-21 19:32:00,70.3,49.7,29.36,NE,45,0.0,0.0,48,0.00,,,0.00,WUHU21623XXSP,2013-03-21 23:32:00,
2013-03-21 19:37:00,70.2,49.5,29.35,NE,45,0.0,0.0,48,0.00,,,0.00,WUHU21623XXSP,2013-03-21 23:37:00,
2013-03-21 19:42:00,69.6,49.6,29.35,NE,45,0.0,0.0,49,0.00,,,0.00,WUHU21623XXSP,2013-03-21 23:42:00,
2013-03-21 19:48:00,69.4,49.4,29.36,NE,45,0.0,0.0,49,0.00,,,0.00,WUHU21623XXSP,2013-03-21 23:48:00,
2013-03-21 19:52:00,69.3,49.3,29.36,NE,45,0.0,0.0,49,0.00,,,0.00,WUHU21623XXSP,2013-03-21 23:52:00,
2013-03-21 19:57:00,68.9,49.5,29.36,NE,45,0.0,0.0,50,0.00,,,0.00,WUHU21623XXSP,2013-03-21 23:57:00,
2013-03-21 20:02:00,68.7,49.4,29.36,NE,45,0.0,0.0,50,0.00,,,0.00,WUHU21623XXSP,2013-03-22 00:02:00,
2013-03-21 20:07:00,68.5,49.2,29.36,NE,45,0.0,0.0,50,0.00,,,0.00,WUHU21623XXSP,2013-03-22 00:07:00,
2013-03-21 20:13:00,68.5,49.7,29.36,NE,45,0.0,0.0,51,0.00,,,0.00,WUHU21623XXSP,2013-03-22 00:13:00,
2013-03-21 20:18:00,68.2,49.4,29.36,NE,45,0.0,0.0,51,0.00,,,0.00,WUHU21623XXSP,2013-03-22 00:18:00,
2013-03-21 20:23:00,68.2,49.9,29.36,NE,45,0.0,0.0,52,0.00,,,0.00,WUHU21623XXSP,2013-03-22 00:23:00,
2013-03-21 20:28:00,67.8,49.5,29.36,NE,45,0.0,0.0,52,0.00,,,0.00,WUHU21623XXSP,2013-03-22 00:28:00,
2013-03-21 20:33:00,67.6,49.9,29.36,NE,45,0.0,0.0,53,0.00,,,0.00,WUHU21623XXSP,2013-03-22 00:33:00,
2013-03-21 20:38:00,67.6,49.9,29.36,NE,45,0.0,0.0,53,0.00,,,0.00,WUHU21623XXSP,2013-03-22 00:38:00,
2013-03-21 20:43:00,67.3,49.5,29.36,NE,45,0.0,0.0,53,0.00,,,0.00,WUHU21623XXSP,2013-03-22 00:43:00,
2013-03-21 20:48:00,67.3,49.5,29.36,NE,45,0.0,0.0,53,0.00,,,0.00,WUHU21623XXSP,2013-03-22 00:48:00,
2013-03-21 20:53:00,67.1,49.4,29.37,NE,45,0.0,0.0,53,0.00,,,0.00,WUHU21623XXSP,2013-03-22 00:53:00,
2013-03-21 20:58:00,66.9,49.7,29.37,NE,45,0.0,0.0,54,0.00,,,0.00,WUHU21623XXSP,2013-03-22 00:58:00,
2013-03-21 21:03:00,66.7,49.5,29.37,NE,45,0.0,0.0,54,0.00,,,0.00,WUHU21623XXSP,2013-03-22 01:03:00,
2013-03-21 21:08:00,66.6,49.4,29.37,NE,45,0.0,0.0,54,0.00,,,0.00,WUHU21623XXSP,2013-03-22 01:08:00,
2013-03-21 21:13:00,66.4,49.7,29.37,NE,45,0.0,0.0,55,0.00,,,0.00,WUHU21623XXSP,2013-03-22 01:13:00,
2013-03-21 21:18:00,66.2,50.0,29.38,NE,45,0.0,0.0,56,0.00,,,0.00,WUHU21623XXSP,2013-03-22 01:18:00,
2013-03-21 21:23:00,66.0,49.9,29.38,NE,45,0.0,0.0,56,0.00,,,0.00,WUHU21623XXSP,2013-03-22 01:23:00,
2013-03-21 21:28:00,66.0,49.9,29.37,NE,45,0.0,0.0,56,0.00,,,0.00,WUHU21623XXSP,2013-03-22 01:28:00,
2013-03-21 21:33:00,65.8,50.2,29.38,NE,45,0.0,0.0,57,0.00,,,0.00,WUHU21623XXSP,2013-03-22 01:33:00,
2013-03-21 21:38:00,65.5,50.3,29.38,NE,45,0.0,0.0,58,0.00,,,0.00,WUHU21623XXSP,2013-03-22 01:38:00,
2013-03-21 21:43:00,65.5,50.3,29.38,NE,45,0.0,0.0,58,0.00,,,0.00,WUHU21623XXSP,2013-03-22 01:43:00,
2013-03-21 21:48:00,65.1,49.9,29.38,NE,45,0.0,0.0,58,0.00,,,0.00,WUHU21623XXSP,2013-03-22 01:48:00,
2013-03-21 21:53:00,65.1,50.4,29.38,NE,45,0.0,0.0,59,0.00,,,0.00,WUHU21623XXSP,2013-03-22 01:53:00,
2013-03-21 21:58:00,65.1,50.4,29.38,NE,45,0.0,0.0,59,0.00,,,0.00,WUHU21623XXSP,2013-03-22 01:58:00,
2013-03-21 22:03:00,64.9,50.7,29.39,NE,45,0.0,0.0,60,0.00,,,0.00,WUHU21623XXSP,2013-03-22 02:03:00,
2013-03-21 22:08:00,64.6,50.4,29.39,NE,45,0.0,0.0,60,0.00,,,0.00,WUHU21623XXSP,2013-03-22 02:08:00,
2013-03-21 22:13:00,64.6,50.4,29.39,NE,45,0.0,0.0,60,0.00,,,0.00,WUHU21623XXSP,2013-03-22 02:13:00,
2013-03-21 22:18:00,64.2,50.0,29.39,NE,45,0.0,0.0,60,0.00,,,0.00,WUHU21623XXSP,2013-03-22 02:18:00,
2013-03-21 22:23:00,64.0,50.3,29.39,NE,45,0.0,0.0,61,0.00,,,0.00,WUHU21623XXSP,2013-03-22 02:23:00,
2013-03-21 22:28:00,64.0,50.3,29.39,NE,45,0.0,0.0,61,0.00,,,0.00,WUHU21623XXSP,2013-03-22 02:28:00,
2013-03-21 22:33:00,64.0,50.3,29.39,NE,45,0.0,0.0,61,0.00,,,0.00,WUHU21623XXSP,2013-03-22 02:33:00,
2013-03-21 22:38:00,63.7,49.9,29.39,NE,45,0.0,0.0,61,0.00,,,0.00,WUHU21623XXSP,2013-03-22 02:38:00,
2013-03-21 22:43:00,63.7,49.9,29.39,NE,45,0.0,0.0,61,0.00,,,0.00,WUHU21623XXSP,2013-03-22 02:43:00,
2013-03-21 22:48:00,63.5,50.2,29.39,NE,45,0.0,0.0,62,0.00,,,0.00,WUHU21623XXSP,2013-03-22 02:48:00,
2013-03-21 22:53:00,63.5,50.2,29.39,NE,45,0.0,0.0,62,0.00,,,0.00,WUHU21623XXSP,2013-03-22 02:53:00,
2013-03-21 22:58:00,63.1,49.9,29.39,NE,45,0.0,0.0,62,0.00,,,0.00,WUHU21623XXSP,2013-03-22 02:58:00,
2013-03-21 23:03:00,63.1,50.3,29.39,NE,45,0.0,0.0,63,0.00,,,0.00,WUHU21623XXSP,2013-03-22 03:03:00,
2013-03-21 23:08:00,63.0,50.1,29.39,NE,45,0.0,0.0,63,0.00,,,0.00,WUHU21623XXSP,2013-03-22 03:08:00,
2013-03-21 23:13:00,62.8,50.8,29.39,NE,45,0.0,0.0,65,0.00,,,0.00,WUHU21623XXSP,2013-03-22 03:13:00,
2013-03-21 23:18:00,62.6,50.6,29.39,NE,45,0.0,0.0,65,0.00,,,0.00,WUHU21623XXSP,2013-03-22 03:18:00,
2013-03-21 23:23:00,62.4,50.5,29.39,NE,45,0.0,0.0,65,0.00,,,0.00,WUHU21623XXSP,2013-03-22 03:23:00,
2013-03-21 23:28:00,62.4,50.5,29.38,NE,45,0.0,0.0,65,0.00,,,0.00,WUHU21623XXSP,2013-03-22 03:28:00,
2013-03-21 23:33:00,62.2,50.3,29.39,NE,45,0.0,0.0,65,0.00,,,0.00,WUHU21623XXSP,2013-03-22 03:33:00,
2013-03-21 23:38:00,62.2,50.3,29.39,NE,45,0.0,0.0,65,0.00,,,0.00,WUHU21623XXSP,2013-03-22 03:38:00,
2013-03-21 23:43:00,61.9,50.0,29.39,NE,45,0.0,0.0,65,0.00,,,0.00,WUHU21623XXSP,2013-03-22 03:43:00,
2013-03-21 23:48:00,61.9,50.0,29.39,NE,45,0.0,0.0,65,0.00,,,0.00,WUHU21623XXSP,2013-03-22 03:48:00,
2013-03-21 23:53:00,61.9,50.0,29.39,NE,45,0.0,0.0,65,0.00,,,0.00,WUHU21623XXSP,2013-03-22 03:53:00,
2013-03-21 23:58:00,61.7,50.2,29.39,NE,45,0.0,0.0,66,0.00,,,0.00,WUHU21623XXSP,2013-03-22 03:58:00,